Peoria, IL

6:23 PM CDT on May 29, 2017 (GMT -0500)
Greater Peoria Regional

Weather History for KPIA - May, 2013

Change the Weather History Date:

Tuesday, May 7, 2013

  Actual Average Record
Temperature  
Mean Temperature 65 °F 60 °F  
Max Temperature 79 °F 71 °F 92 °F (1896)
Min Temperature 50 °F 49 °F 28 °F (1906)
Degree Days  
Heating Degree Days 0 7  
Month to date heating degree days 27 51  
Since 1 July heating degree days 5719 5716  
Cooling Degree Days 0 1  
Month to date cooling degree days 7 7  
Year to date cooling degree days 16 21  
Growing Degree Days 14 (Base 50)    
Moisture  
Dew Point 40 °F    
Average Humidity 47    
Maximum Humidity 74    
Minimum Humidity 19    
Precipitation  
Precipitation 0.00 in 0.14 in 1.51 in (1945)
Month to date precipitation 1.49 0.96  
Year to date precipitation 18.60 10.96  
Snow  
Snow 0.00 in 0.00 in 0.00 in ()
Month to date snowfall 0.0 0.0  
Since 1 July snowfall 22.7 24.6  
Snow Depth 0.00 in    
Sea Level Pressure  
Sea Level Pressure 30.00 in    
Wind  
Wind Speed 4 mph (NNE)    
Max Wind Speed 12 mph    
Max Gust Speed 15 mph    
Visibility 10 miles    
Events      
T = Trace of Precipitation, MM = Missing Value Source: NWS Daily Summary

Daily Weather History Graph

Daily Weather History Graph

Search for Another Location

Airport or City:

Trip Planner

Search our weather history database for the weather conditions in past years. The results will help you decide how hot, cold, wet, or windy it might be!

Date:

Astronomy

May. 07, 2013 Rise Set
Actual Time 5:49 AM CDT 8:01 PM CDT
Civil Twilight 5:19 AM CDT 8:31 PM CDT
Nautical Twilight 4:42 AM CDT 9:08 PM CDT
Astronomical Twilight 4:01 AM CDT 9:49 PM CDT
Moon 4:24 AM CDT (5/7) 6:00 PM CDT (5/7)
Length of Visible Light 15h 11m
Length of Day
14h 11m
Waning Crescent, 5% of the Moon is Illuminated
May 7
Waning Crescent
May 9
New
May 17
First Quarter
May 24
Full
May 31
Last Quarter

Hourly Weather History & Observations

Time (CDT) Temp. Dew Point Humidity Pressure Visibility Wind Dir Wind Speed Gust Speed Precip Events Conditions
12:54 AM 60.1 °F 39.9 °F 47% 30.00 in 10.0 mi NE 5.8 mph - N/A   Clear
1:54 AM 55.9 °F 41.0 °F 57% 30.01 in 10.0 mi East 3.5 mph - N/A   Clear
2:54 AM 55.0 °F 41.0 °F 59% 30.00 in 10.0 mi ENE 6.9 mph - N/A   Mostly Cloudy
3:54 AM 54.0 °F 39.9 °F 59% 30.00 in 10.0 mi NE 4.6 mph - N/A   Clear
4:54 AM 51.8 °F 39.2 °F 62% 30.01 in 10.0 mi ENE 3.5 mph - N/A   Clear
5:54 AM 50.0 °F 43.0 °F 77% 30.02 in 10.0 mi Calm Calm - N/A   Clear
6:54 AM 54.0 °F 44.1 °F 69% 30.04 in 10.0 mi ENE 4.6 mph - N/A   Clear
7:54 AM 61.0 °F 45.0 °F 56% 30.04 in 10.0 mi ENE 4.6 mph - N/A   Clear
8:54 AM 64.9 °F 45.0 °F 48% 30.05 in 10.0 mi East 5.8 mph - N/A   Clear
9:54 AM 70.0 °F 39.9 °F 33% 30.04 in 10.0 mi NNE 5.8 mph - N/A   Clear
10:54 AM 72.0 °F 33.1 °F 24% 30.04 in 10.0 mi NNE 8.1 mph - N/A   Clear
11:54 AM 73.9 °F 34.0 °F 23% 30.03 in 10.0 mi North 9.2 mph - N/A   Clear
12:54 PM 75.9 °F 35.1 °F 23% 30.01 in 10.0 mi NNE 4.6 mph - N/A   Clear
1:54 PM 77.0 °F 34.0 °F 21% 30.00 in 10.0 mi North - - N/A   Clear
2:54 PM 78.1 °F 34.0 °F 20% 29.99 in 10.0 mi Calm Calm - N/A   Clear
3:54 PM 77.0 °F 39.0 °F 25% 29.98 in 10.0 mi SW 5.8 mph - N/A   Clear
4:54 PM 79.0 °F 37.9 °F 23% 29.97 in 10.0 mi Variable 5.8 mph - N/A   Clear
5:54 PM 79.0 °F 39.9 °F 25% 29.97 in 10.0 mi Variable 3.5 mph - N/A   Clear
6:54 PM 77.0 °F 37.9 °F 24% 29.96 in 10.0 mi NW 3.5 mph - N/A   Clear
7:54 PM 73.0 °F 37.0 °F 27% 29.97 in 10.0 mi Calm Calm - N/A   Clear
8:54 PM 64.9 °F 43.0 °F 45% 29.98 in 10.0 mi Calm Calm - N/A   Clear
9:54 PM 61.0 °F 46.0 °F 58% 29.99 in 10.0 mi Calm Calm - N/A   Clear
10:54 PM 59.0 °F 45.0 °F 60% 29.99 in 10.0 mi NW 3.5 mph - N/A   Clear
11:54 PM 59.0 °F 46.9 °F 64% 29.99 in 10.0 mi NNW 5.8 mph - N/A   Clear